SCP
-0 -0 0 0 0 0 -0 0 0 -0 0 0 0 0 0 0 0 0 0 0 0 -0 -0 -0 -0 -0 -0 -0 -0 -0 -0 -0 -0 -0 -0 -0 -0 -0 -0 -0 0 0 0 0 -0 -0 -0 -0 -0
-0 -0 0 0 0 0 0 0 -0 -0 0 0 0 0 0 0 0 0 0 -0 -0 -0 0 -0 -0 -0 -0 -0 -0 -0 -0 -0 -0 -0 -0 -0 -0 -0 -0 -0 -0 0 0 0 0 0 -0 -0 -0
-0 0 0 0 0 0 0 0 -0 0 -0 0 0 0 0 0 0 0 -0 -0 -0 0 0 0 0 -0 -0 -0 -0 -0 -0 -0 -0 -0 -0 -0 -0 -0 -0 -0 -0 0 0 0 0 0 0 0 -0
0 0 0 0 0 0 -0 0 0 0 0 0 0 0 0 0 0 0 -0 -0 -0 -0 0 0 0 -0 -0 -0 -0 0 -0 -0 -0 -0 0 -0 -0 -0 -0 -0 -0 0 0 0 0 0 0 0 0
0 0 0 0 0 0 0 0 0 0 0 0 0 0 0 0 0 -0 -0 -0 -0 -0 -0 0 0 0 0 0 -0 0 0 0 0 0 -0 0 -0 -0 -0 0 0 0 0 0 0 0 0 0 0
0 0 0 0 0 0 0 0 0 0 0 0 0 -0 0 0 0 0 -0 -0 -0 -0 -0 -0 0 0 0 0 0 0 0 0 0 0 0 0 0 0 0 0 0 0 0 0 0 0 0 0 0
0 0 0 0 0 0 0 0 0 0 0 0 0 0 0 0 0 -0 0 0 0 0 -0 0 0 -0 0 0 0 0 0 0 0 0 0 0 0 0 0 0 0 0 0 0 0 0 0 0 0
0 0 0 0 0 0 0 0 0 0 0 0 0 0 0 0 -0 -0 -0 0 0 0 0 0 0 0 0 0 0 0 0 0 0 0 0 0 0 0 0 0 0 0 0 0 0 0 0 0 0
0 0 0 0 0 0 0 0 0 0 0 0 0 0 0 -0 -0 -0 -0 -0 -0 0 0 0 0 0 0 0 0 0 0 0 0 0 0 0 0 0 0 0 0 0 0 0 0 0 0 0 0
0 0 0 0 0 0 0 0 0 0 0 0 0 0 0 -0 -0 -0 -0 -0 -0 -0 -0 -0 0 0 0 0 0 0 0 0 0 0 0 0 0 0 0 0 0 0 0 0 0 0 0 0 0
0 0 0 0 0 0 0 0 0 0 0 0 0 0 0 0 0 -0 -0 -0 -0 -0 0 -0 -0 0 0 0 0 0 0 0 0 0 0 0 0 0 0 0 0 0 0 0 0 0 0 0 0
0 0 0 0 0 0 0 0 0 0 0 0 0 0 0 0 0 0 -0 -0 -0 -0 -0 0 0 0 0 0 0 0 0 0 0 0 0 0 0 0 0 0 0 0 0 0 0 0 0 0 0
0 0 0 0 0 0 0 0 0 0 0 0 0 0 0 0 0 0 0 0 0 0 0 0 0 0 0 0 0 0 0 0 0 0 0 0 0 0 0 0 0 0 0 0 0 0 0 0 0
0 0 0 0 0 0 0 0 0 0 0 0 0 0 0 0 0 0 0 0 0 0 0 0 0 0 0 0 0 0 0 0 0 0 0 0 0 0 0 0 0 0 0 0 0 0 0 0 0
0 0 0 0 0 0 0 0 0 0 0 0 0 0 0 0 0 0 0 0 0 0 0 0 0 0 0 0 0 0 0 0 0 0 0 0 0 0 0 0 0 0 0 0 0 0 0 0 0
0 0 0 0 0 0 0 0 0 0 0 0 0 0 0 0 0 0 0 0 0 0 0 0 0 0 0 0 0 0 0 0 0 0 0 0 0 0 0 0 0 0 0 0 0 0 0 0 0
0 0 0 0 0 0 0 0 0 0 0 0 0 0 0 0 0 0 0 0 0 0 0 0 0 0 0 0 0 0 0 0 0 0 0 0 0 0 0 0 0 0 0 0 0 0 0 0 0
0 0 0 0 0 0 0 0 0 0 0 0 0 0 0 0 0 0 0 0 0 0 0 0 0 0 0 0 0 0 0 0 0 0 0 0 0 0 0 0 0 0 0 0 0 0 0 0 0
0 0 0 0 0 0 0 0 0 0 0 0 0 0 0 0 0 0 0 0 0 0 0 0 0 0 0 0 0 0 0 0 0 0 0 0 0 0 0 0 0 0 0 0 0 0 0 0 0
0 0 0 0 0 0 0 0 0 0 0 0 0 0 0 0 0 0 0 0 0 0 0 0 0 0 0 0 0 0 0 0 0 0 0 0 0 0 0 0 0 0 0 0 0 0 0 0 0
0 0 0 0 0 0 0 0 0 0 0 0 0 0 0 0 0 0 0 0 0 0 0 0 0 0 0 0 0 0 0 0 0 0 0 0 0 0 0 0 0 0 0 0 0 0 0 0 0
0 0 0 0 0 0 0 0 0 0 0 0 0 0 0 0 0 0 0 0 0 0 0 0 0 0 0 0 0 0 0 0 0 0 0 0 0 0 0 0 0 0 0 0 0 0 0 0 0
0 0 0 0 0 0 0 0 0 0 0 0 0 0 0 0 0 0 0 0 0 0 0 0 0 0 0 0 0 0 0 0 0 0 0 0 0 0 0 0 0 0 0 0 0 0 0 0 0
0 0 0 0 0 0 0 0 0 0 0 0 0 0 0 0 0 0 0 0 0 0 0 0 0 0 0 0 0 0 0 0 0 0 0 0 0 0 0 0 0 0 0 0 0 0 0 0 0
0 0 0 0 0 0 0 0 0 0 0 0 0 0 0 0 0 0 0 0 0 0 0 0 0 0 0 0 0 0 0 0 0 0 0 0 0 0 0 0 0 0 0 0 0 0 0 0 0
0 0 0 0 0 0 0 0 0 0 0 0 0 0 0 0 0 0 0 0 0 0 0 0 0 0 0 0 0 0 0 0 0 0 0 0 0 0 0 0 0 0 0 0 0 0 0 0 0
0 0 0 0 0 0 0 0 0 0 0 0 0 0 0 0 0 0 0 0 0 0 0 0 0 0 0 0 0 0 0 0 0 0 0 0 0 0 0 0 0 0 0 0 0 0 0 0 0
0 0 0 0 0 0 0 0 0 0 0 0 0 0 0 0 0 0 0 0 0 0 0 0 0 0 0 0 0 0 0 0 0 0 0 0 0 0 0 0 0 0 0 0 0 0 0 0 0
0 0 0 0 0 0 0 0 0 0 0 0 0 0 0 0 0 0 0 0 0 0 0 0 0 0 0 0 0 0 0 0 0 0 0 0 0 0 0 0 0 0 0 0 0 0 0 0 0
0 0 0 0 0 0 0 0 0 0 0 0 0 0 0 0 0 0 0 0 0 0 0 0 0 0 0 0 0 0 0 0 0 0 0 0 0 0 0 0 0 0 0 0 0 0 0 0 0
Wind_Speed_500mb
35 23 11 14 5 5 5 8 3 8 7 8 26 13 13 5 8 5 14 40 42 46 48 43 38 34 36 34 31 31 30 31 32 30 27 24 19 15 11 10 9 14 17 20 22 22 24 22 23
36 10 15 5 6 2 7 5 12 11 12 24 19 16 7 6 7 7 30 42 45 44 46 41 38 38 37 35 31 31 28 28 28 26 23 19 14 12 12 14 18 19 20 21 22 23 22 20 22
31 9 6 6 5 8 8 9 9 10 33 16 11 8 11 6 13 19 28 40 48 45 43 42 40 39 38 35 33 32 28 23 23 21 19 16 13 13 12 16 20 22 21 22 22 22 19 17 19
24 1 5 5 8 10 9 4 12 18 12 13 12 6 6 11 14 23 33 40 46 46 44 44 42 38 38 35 35 33 29 21 15 20 18 17 15 15 16 21 16 21 18 18 18 18 16 13 15
25 1 4 3 8 8 7 7 28 11 17 17 19 9 5 13 12 31 33 38 44 48 46 45 40 36 37 36 33 32 28 22 19 16 13 14 15 16 15 12 18 16 15 17 17 15 12 10 9
9 4 4 7 9 8 10 10 21 13 15 17 15 17 8 15 17 35 36 35 41 46 46 44 40 37 35 36 34 31 28 24 21 18 15 17 20 15 15 15 21 26 15 15 15 13 11 9 6
2 6 7 5 6 9 7 12 12 15 17 14 15 11 9 26 27 27 37 34 40 43 44 43 39 36 33 33 31 30 30 30 29 24 22 19 21 18 13 20 26 17 16 11 13 13 12 9 7
3 6 5 7 7 11 3 16 7 18 12 13 15 8 8 37 35 37 37 36 39 42 42 43 40 36 31 29 27 27 26 26 26 28 30 29 25 17 15 15 16 19 17 16 17 14 13 11 9
5 3 6 9 11 10 6 9 7 10 9 17 21 8 8 39 41 44 44 43 42 45 44 43 43 40 34 30 27 27 26 25 25 24 24 27 19 19 18 16 16 11 11 11 12 12 12 12 11
9 7 15 12 10 8 6 8 16 9 10 13 18 20 11 37 46 50 53 52 50 50 51 46 44 42 39 33 31 28 27 26 26 24 21 20 20 20 17 18 18 19 15 13 13 14 13 14 13
9 13 10 9 23 8 5 5 8 13 6 21 38 35 23 38 48 49 50 51 50 48 50 51 47 44 42 37 32 30 28 27 25 24 22 21 20 20 19 19 20 19 19 19 19 19 18 17 17
8 26 12 9 20 13 9 5 6 19 12 26 34 29 32 36 45 49 50 52 52 50 48 48 48 46 44 41 36 31 30 28 28 26 25 22 20 21 20 20 20 20 20 21 22 21 20 19 20
9 9 13 27 14 20 10 12 10 22 28 15 20 34 40 42 42 46 47 46 48 48 48 48 47 46 45 44 41 38 34 32 28 29 27 26 24 22 22 21 23 23 23 21 21 22 22 23 25
10 21 10 11 22 11 10 6 8 25 32 35 31 28 43 49 49 52 52 51 51 46 46 46 48 45 42 45 45 40 36 33 34 33 32 31 29 27 26 26 25 24 24 24 24 26 27 28 28
5 8 6 13 13 8 15 9 17 52 14 24 44 40 39 52 59 61 53 54 48 48 44 41 43 45 45 40 42 42 37 35 35 34 33 34 33 32 31 31 31 28 27 27 29 29 31 33 33
7 3 8 3 19 9 20 18 19 42 45 45 33 39 44 50 60 63 62 57 52 49 45 41 41 42 43 42 39 39 36 33 30 28 28 29 30 30 32 32 31 29 31 32 33 33 35 36 37
6 6 8 9 25 9 14 12 9 16 25 45 47 37 36 46 57 66 65 60 55 50 46 46 46 43 39 39 38 38 36 37 34 31 29 27 26 22 24 28 30 31 33 35 35 36 37 38 38
11 8 6 9 5 5 9 19 14 8 7 20 27 42 46 41 55 58 64 61 58 54 50 48 49 47 43 40 41 41 42 42 40 39 35 32 33 30 29 28 29 31 32 33 34 36 37 41 42
7 6 8 5 4 3 11 12 30 27 23 21 23 32 36 46 47 45 54 63 61 59 55 53 54 54 52 51 50 48 48 43 44 40 37 35 34 35 35 33 34 34 33 31 31 36 38 40 38
6 7 8 6 2 7 7 16 25 12 19 44 52 44 38 34 41 48 47 53 64 64 61 58 57 58 56 57 54 51 44 44 44 42 38 35 33 35 37 37 36 38 39 40 38 34 34 39 35
7 11 7 5 5 2 7 12 15 10 17 35 42 51 56 57 53 48 51 50 51 63 66 63 59 59 57 57 57 55 53 51 43 39 36 34 33 32 34 36 36 36 40 44 41 39 37 35 31
15 11 7 1 6 8 3 10 11 7 11 10 36 49 58 61 59 55 52 54 55 58 61 61 60 59 58 57 60 59 55 49 37 27 20 20 26 28 29 32 34 37 41 45 44 42 41 38 39
12 14 17 11 7 3 3 3 13 7 9 15 19 26 29 32 31 39 44 55 63 62 57 55 59 60 60 61 63 61 61 56 51 43 40 38 36 34 35 33 34 37 37 39 43 41 43 42 43
12 13 12 7 5 7 13 13 7 8 5 9 5 23 28 16 13 13 17 29 47 56 62 59 51 46 47 50 55 61 62 62 58 54 50 47 46 46 43 38 36 34 35 36 37 38 40 43 44
6 14 3 4 2 11 4 7 13 9 10 7 15 21 18 7 2 5 8 11 23 32 41 50 54 49 46 43 44 48 50 50 51 53 53 53 51 49 48 47 44 42 40 39 39 40 42 41 44
16 13 11 15 10 6 1 12 7 8 8 15 21 21 26 30 27 23 20 18 18 19 24 33 43 44 41 42 41 41 43 46 48 47 46 46 44 44 45 46 45 45 44 44 43 43 42 41 41
14 15 9 10 3 5 8 9 2 7 13 22 28 35 38 39 42 43 40 40 38 37 36 33 33 33 32 31 30 32 32 33 33 33 32 32 33 34 33 36 36 36 36 37 38 41 40 37 39
15 17 6 2 9 8 6 5 6 2 9 12 18 29 32 35 45 49 50 50 49 47 45 41 39 37 35 30 27 24 22 20 19 19 19 22 23 26 27 28 28 29 30 30 30 29 30 32 37
11 11 7 7 8 9 5 7 6 6 4 7 15 24 28 37 43 46 48 47 47 45 42 40 35 32 29 25 22 18 17 15 15 15 15 17 18 19 21 24 25 27 30 33 31 32 35 37 40
28 19 13 12 10 4 5 5 5 10 10 16 19 23 33 37 39 40 40 40 39 38 36 33 31 25 24 21 18 16 14 11 9 8 7 8 10 12 14 15 18 20 21 23 26 30 33 35 36
Wind_Direction_500mb
344 347 155 149 77 66 253 242 181 156 158 169 142 160 190 176 166 197 165 166 169 171 165 165 166 162 157 158 157 154 147 144 147 153 154 159 165 173 186 185 146 115 111 115 121 120 117 111 89
346 1 148 135 107 122 263 224 200 189 155 146 140 131 152 196 175 157 150 161 166 171 168 166 163 164 163 164 165 162 156 154 154 156 157 161 167 168 167 155 139 119 111 108 110 116 119 111 93
344 338 199 114 126 186 226 214 197 152 146 143 127 166 165 180 183 160 157 163 163 172 170 167 167 168 166 169 169 168 164 169 165 161 162 161 163 155 149 135 139 119 113 117 125 128 127 114 96
340 246 75 115 213 245 209 254 174 130 172 160 153 139 186 168 167 170 164 167 167 171 170 170 170 171 168 171 170 169 170 173 165 163 158 156 158 153 137 136 132 126 125 132 130 134 132 121 100
332 294 81 156 247 260 243 253 172 162 161 169 168 178 180 195 186 175 171 168 171 170 172 174 174 171 168 169 171 174 174 172 181 178 181 166 165 159 157 163 150 144 147 147 147 143 138 127 115
334 61 80 231 249 258 280 223 172 165 161 160 159 150 179 177 172 165 166 167 172 172 174 177 177 175 172 171 177 181 181 183 184 193 189 181 176 184 181 172 173 158 152 154 157 156 159 159 154
184 105 223 214 258 295 248 171 180 169 158 200 171 143 177 172 162 169 166 167 169 175 179 182 183 181 180 178 183 187 190 192 194 195 194 197 190 185 193 188 176 182 192 173 176 174 183 192 200
283 103 152 235 209 260 196 176 192 181 192 170 169 183 185 178 165 164 166 169 174 180 185 188 189 191 189 186 190 191 194 199 204 207 204 211 194 187 205 215 192 187 191 188 187 190 203 210 225
208 65 209 225 168 248 189 195 177 189 170 179 191 174 166 174 170 169 172 176 182 186 190 195 196 196 198 197 198 197 197 196 196 195 202 219 205 210 217 224 221 219 205 197 197 207 219 232 241
184 172 221 205 196 227 218 206 175 168 178 201 203 208 186 179 183 183 185 186 188 190 192 198 202 203 203 205 206 206 206 205 207 206 207 206 209 213 215 219 223 230 231 228 227 233 232 240 250
211 212 210 239 219 207 207 261 204 160 226 211 214 211 196 183 193 197 198 199 196 195 197 199 203 207 211 211 214 214 215 217 218 219 218 219 219 220 221 222 227 234 240 242 245 247 252 257 264
235 254 213 250 217 185 191 198 225 211 211 224 227 226 213 200 203 209 209 206 203 201 202 203 204 208 213 215 219 222 225 225 227 226 227 231 232 234 235 233 234 237 244 247 250 254 257 266 274
233 254 230 240 237 208 200 215 221 243 230 214 213 217 219 220 220 218 219 216 212 210 208 208 208 210 213 217 220 223 226 230 232 234 235 238 238 241 245 245 245 246 249 253 252 252 261 270 274
213 245 247 244 231 221 203 247 180 254 241 236 231 224 221 224 225 223 222 218 218 218 216 213 213 214 215 220 221 226 231 235 236 237 239 241 243 244 248 249 251 252 257 257 258 261 265 270 275
239 273 270 221 199 225 198 256 222 241 213 226 236 235 230 224 225 227 229 224 219 219 218 216 216 217 218 222 224 226 232 237 239 241 242 245 247 249 251 251 252 254 256 258 261 266 269 275 279
201 173 224 261 158 212 165 256 249 248 240 239 232 232 226 225 225 226 227 228 224 225 222 217 218 221 222 224 222 224 225 231 234 235 237 243 249 253 253 253 253 253 254 258 262 267 272 277 281
350 204 201 294 201 147 182 253 248 250 222 240 236 235 234 229 227 227 226 229 229 230 228 224 222 222 223 226 228 227 228 232 232 235 239 244 250 255 258 260 259 254 254 257 260 264 271 276 281
191 191 208 229 248 209 191 252 255 308 234 254 252 232 233 235 230 230 230 232 233 233 232 230 230 229 226 228 232 236 236 237 238 237 241 247 254 258 265 271 272 262 261 264 267 270 272 277 284
150 185 185 219 328 225 252 256 265 257 259 269 255 245 237 239 241 238 234 233 236 235 235 231 229 227 227 227 229 232 237 237 239 241 244 250 258 263 265 272 279 276 273 276 276 277 277 279 284
153 184 222 282 75 173 283 263 262 241 242 244 246 249 250 250 246 241 240 237 235 235 236 235 231 231 229 231 233 236 240 245 247 249 251 253 258 264 268 270 275 276 276 269 276 281 280 276 277
195 177 175 203 324 163 322 275 249 256 249 250 247 248 253 253 250 242 241 242 238 236 236 236 236 236 234 234 235 234 238 241 247 253 258 259 259 263 269 270 271 271 269 265 266 269 270 285 280
219 179 169 195 43 238 27 281 291 308 291 264 254 245 244 247 249 250 245 241 237 236 237 237 238 239 239 237 238 238 238 240 240 246 248 258 261 260 266 266 266 268 266 260 260 261 264 266 270
217 158 186 192 187 19 235 316 269 345 298 258 264 269 269 264 262 255 253 249 243 240 238 239 238 238 238 240 240 240 241 244 243 244 249 255 260 267 272 267 267 267 262 261 263 262 262 266 269
141 95 60 62 114 256 205 174 263 214 241 321 0 327 320 292 298 244 261 249 239 238 236 234 234 234 233 237 239 242 244 246 246 244 249 257 264 269 268 263 265 267 262 258 259 261 262 264 266
172 143 47 20 343 231 215 167 246 287 300 287 320 354 16 37 139 254 249 223 217 224 225 222 221 225 229 232 235 235 237 240 241 244 249 254 260 261 259 262 265 265 265 261 259 259 260 262 267
183 180 164 183 195 196 181 226 237 322 42 54 63 62 78 85 88 95 103 118 139 156 174 192 200 202 206 214 220 223 226 230 235 240 246 250 252 253 256 261 265 265 263 262 261 262 263 266 268
184 215 167 109 60 78 207 286 343 14 31 31 46 61 68 83 89 94 101 108 115 120 126 137 153 160 165 176 187 198 206 214 222 229 235 241 246 250 254 260 261 260 261 262 261 261 262 263 267
170 159 190 45 151 229 261 275 199 64 30 17 43 55 69 81 92 97 99 102 106 111 115 121 126 132 134 141 148 158 168 180 193 208 220 236 244 246 248 252 255 259 262 266 270 274 271 265 262
183 184 189 128 159 170 150 247 227 131 71 94 66 73 81 89 93 95 98 101 104 109 113 114 118 121 126 130 135 146 158 173 190 207 219 229 240 248 252 256 259 261 267 271 268 272 272 270 269
206 206 205 200 215 233 139 243 82 108 114 120 101 100 103 103 102 101 102 104 106 105 108 109 109 114 114 118 126 137 144 154 171 189 210 231 253 265 272 275 276 275 272 269 264 262 265 268 271
Wind_Speed_850mb
35 23 11 14 5 5 5 8 3 8 7 8 26 13 13 5 8 5 14 40 42 46 48 43 38 34 36 34 31 31 30 31 32 30 27 24 19 15 11 10 9 14 17 20 22 22 24 22 23
36 10 15 5 6 2 7 5 12 11 12 24 19 16 7 6 7 7 30 42 45 44 46 41 38 38 37 35 31 31 28 28 28 26 23 19 14 12 12 14 18 19 20 21 22 23 22 20 22
31 9 6 6 5 8 8 9 9 10 33 16 11 8 11 6 13 19 28 40 48 45 43 42 40 39 38 35 33 32 28 23 23 21 19 16 13 13 12 16 20 22 21 22 22 22 19 17 19
24 1 5 5 8 10 9 4 12 18 12 13 12 6 6 11 14 23 33 40 46 46 44 44 42 38 38 35 35 33 29 21 15 20 18 17 15 15 16 21 16 21 18 18 18 18 16 13 15
25 1 4 3 8 8 7 7 28 11 17 17 19 9 5 13 12 31 33 38 44 48 46 45 40 36 37 36 33 32 28 22 19 16 13 14 15 16 15 12 18 16 15 17 17 15 12 10 9
9 4 4 7 9 8 10 10 21 13 15 17 15 17 8 15 17 35 36 35 41 46 46 44 40 37 35 36 34 31 28 24 21 18 15 17 20 15 15 15 21 26 15 15 15 13 11 9 6
2 6 7 5 6 9 7 12 12 15 17 14 15 11 9 26 27 27 37 34 40 43 44 43 39 36 33 33 31 30 30 30 29 24 22 19 21 18 13 20 26 17 16 11 13 13 12 9 7
3 6 5 7 7 11 3 16 7 18 12 13 15 8 8 37 35 37 37 36 39 42 42 43 40 36 31 29 27 27 26 26 26 28 30 29 25 17 15 15 16 19 17 16 17 14 13 11 9
5 3 6 9 11 10 6 9 7 10 9 17 21 8 8 39 41 44 44 43 42 45 44 43 43 40 34 30 27 27 26 25 25 24 24 27 19 19 18 16 16 11 11 11 12 12 12 12 11
9 7 15 12 10 8 6 8 16 9 10 13 18 20 11 37 46 50 53 52 50 50 51 46 44 42 39 33 31 28 27 26 26 24 21 20 20 20 17 18 18 19 15 13 13 14 13 14 13
9 13 10 9 23 8 5 5 8 13 6 21 38 35 23 38 48 49 50 51 50 48 50 51 47 44 42 37 32 30 28 27 25 24 22 21 20 20 19 19 20 19 19 19 19 19 18 17 17
8 26 12 9 20 13 9 5 6 19 12 26 34 29 32 36 45 49 50 52 52 50 48 48 48 46 44 41 36 31 30 28 28 26 25 22 20 21 20 20 20 20 20 21 22 21 20 19 20
9 9 13 27 14 20 10 12 10 22 28 15 20 34 40 42 42 46 47 46 48 48 48 48 47 46 45 44 41 38 34 32 28 29 27 26 24 22 22 21 23 23 23 21 21 22 22 23 25
10 21 10 11 22 11 10 6 8 25 32 35 31 28 43 49 49 52 52 51 51 46 46 46 48 45 42 45 45 40 36 33 34 33 32 31 29 27 26 26 25 24 24 24 24 26 27 28 28
5 8 6 13 13 8 15 9 17 52 14 24 44 40 39 52 59 61 53 54 48 48 44 41 43 45 45 40 42 42 37 35 35 34 33 34 33 32 31 31 31 28 27 27 29 29 31 33 33
7 3 8 3 19 9 20 18 19 42 45 45 33 39 44 50 60 63 62 57 52 49 45 41 41 42 43 42 39 39 36 33 30 28 28 29 30 30 32 32 31 29 31 32 33 33 35 36 37
6 6 8 9 25 9 14 12 9 16 25 45 47 37 36 46 57 66 65 60 55 50 46 46 46 43 39 39 38 38 36 37 34 31 29 27 26 22 24 28 30 31 33 35 35 36 37 38 38
11 8 6 9 5 5 9 19 14 8 7 20 27 42 46 41 55 58 64 61 58 54 50 48 49 47 43 40 41 41 42 42 40 39 35 32 33 30 29 28 29 31 32 33 34 36 37 41 42
7 6 8 5 4 3 11 12 30 27 23 21 23 32 36 46 47 45 54 63 61 59 55 53 54 54 52 51 50 48 48 43 44 40 37 35 34 35 35 33 34 34 33 31 31 36 38 40 38
6 7 8 6 2 7 7 16 25 12 19 44 52 44 38 34 41 48 47 53 64 64 61 58 57 58 56 57 54 51 44 44 44 42 38 35 33 35 37 37 36 38 39 40 38 34 34 39 35
7 11 7 5 5 2 7 12 15 10 17 35 42 51 56 57 53 48 51 50 51 63 66 63 59 59 57 57 57 55 53 51 43 39 36 34 33 32 34 36 36 36 40 44 41 39 37 35 31
15 11 7 1 6 8 3 10 11 7 11 10 36 49 58 61 59 55 52 54 55 58 61 61 60 59 58 57 60 59 55 49 37 27 20 20 26 28 29 32 34 37 41 45 44 42 41 38 39
12 14 17 11 7 3 3 3 13 7 9 15 19 26 29 32 31 39 44 55 63 62 57 55 59 60 60 61 63 61 61 56 51 43 40 38 36 34 35 33 34 37 37 39 43 41 43 42 43
12 13 12 7 5 7 13 13 7 8 5 9 5 23 28 16 13 13 17 29 47 56 62 59 51 46 47 50 55 61 62 62 58 54 50 47 46 46 43 38 36 34 35 36 37 38 40 43 44
6 14 3 4 2 11 4 7 13 9 10 7 15 21 18 7 2 5 8 11 23 32 41 50 54 49 46 43 44 48 50 50 51 53 53 53 51 49 48 47 44 42 40 39 39 40 42 41 44
16 13 11 15 10 6 1 12 7 8 8 15 21 21 26 30 27 23 20 18 18 19 24 33 43 44 41 42 41 41 43 46 48 47 46 46 44 44 45 46 45 45 44 44 43 43 42 41 41
14 15 9 10 3 5 8 9 2 7 13 22 28 35 38 39 42 43 40 40 38 37 36 33 33 33 32 31 30 32 32 33 33 33 32 32 33 34 33 36 36 36 36 37 38 41 40 37 39
15 17 6 2 9 8 6 5 6 2 9 12 18 29 32 35 45 49 50 50 49 47 45 41 39 37 35 30 27 24 22 20 19 19 19 22 23 26 27 28 28 29 30 30 30 29 30 32 37
11 11 7 7 8 9 5 7 6 6 4 7 15 24 28 37 43 46 48 47 47 45 42 40 35 32 29 25 22 18 17 15 15 15 15 17 18 19 21 24 25 27 30 33 31 32 35 37 40
28 19 13 12 10 4 5 5 5 10 10 16 19 23 33 37 39 40 40 40 39 38 36 33 31 25 24 21 18 16 14 11 9 8 7 8 10 12 14 15 18 20 21 23 26 30 33 35 36
Wind_Direction_850mb
344 347 155 149 77 66 253 242 181 156 158 169 142 160 190 176 166 197 165 166 169 171 165 165 166 162 157 158 157 154 147 144 147 153 154 159 165 173 186 185 146 115 111 115 121 120 117 111 89
346 1 148 135 107 122 263 224 200 189 155 146 140 131 152 196 175 157 150 161 166 171 168 166 163 164 163 164 165 162 156 154 154 156 157 161 167 168 167 155 139 119 111 108 110 116 119 111 93
344 338 199 114 126 186 226 214 197 152 146 143 127 166 165 180 183 160 157 163 163 172 170 167 167 168 166 169 169 168 164 169 165 161 162 161 163 155 149 135 139 119 113 117 125 128 127 114 96
340 246 75 115 213 245 209 254 174 130 172 160 153 139 186 168 167 170 164 167 167 171 170 170 170 171 168 171 170 169 170 173 165 163 158 156 158 153 137 136 132 126 125 132 130 134 132 121 100
332 294 81 156 247 260 243 253 172 162 161 169 168 178 180 195 186 175 171 168 171 170 172 174 174 171 168 169 171 174 174 172 181 178 181 166 165 159 157 163 150 144 147 147 147 143 138 127 115
334 61 80 231 249 258 280 223 172 165 161 160 159 150 179 177 172 165 166 167 172 172 174 177 177 175 172 171 177 181 181 183 184 193 189 181 176 184 181 172 173 158 152 154 157 156 159 159 154
184 105 223 214 258 295 248 171 180 169 158 200 171 143 177 172 162 169 166 167 169 175 179 182 183 181 180 178 183 187 190 192 194 195 194 197 190 185 193 188 176 182 192 173 176 174 183 192 200
283 103 152 235 209 260 196 176 192 181 192 170 169 183 185 178 165 164 166 169 174 180 185 188 189 191 189 186 190 191 194 199 204 207 204 211 194 187 205 215 192 187 191 188 187 190 203 210 225
208 65 209 225 168 248 189 195 177 189 170 179 191 174 166 174 170 169 172 176 182 186 190 195 196 196 198 197 198 197 197 196 196 195 202 219 205 210 217 224 221 219 205 197 197 207 219 232 241
184 172 221 205 196 227 218 206 175 168 178 201 203 208 186 179 183 183 185 186 188 190 192 198 202 203 203 205 206 206 206 205 207 206 207 206 209 213 215 219 223 230 231 228 227 233 232 240 250
211 212 210 239 219 207 207 261 204 160 226 211 214 211 196 183 193 197 198 199 196 195 197 199 203 207 211 211 214 214 215 217 218 219 218 219 219 220 221 222 227 234 240 242 245 247 252 257 264
235 254 213 250 217 185 191 198 225 211 211 224 227 226 213 200 203 209 209 206 203 201 202 203 204 208 213 215 219 222 225 225 227 226 227 231 232 234 235 233 234 237 244 247 250 254 257 266 274
233 254 230 240 237 208 200 215 221 243 230 214 213 217 219 220 220 218 219 216 212 210 208 208 208 210 213 217 220 223 226 230 232 234 235 238 238 241 245 245 245 246 249 253 252 252 261 270 274
213 245 247 244 231 221 203 247 180 254 241 236 231 224 221 224 225 223 222 218 218 218 216 213 213 214 215 220 221 226 231 235 236 237 239 241 243 244 248 249 251 252 257 257 258 261 265 270 275
239 273 270 221 199 225 198 256 222 241 213 226 236 235 230 224 225 227 229 224 219 219 218 216 216 217 218 222 224 226 232 237 239 241 242 245 247 249 251 251 252 254 256 258 261 266 269 275 279
201 173 224 261 158 212 165 256 249 248 240 239 232 232 226 225 225 226 227 228 224 225 222 217 218 221 222 224 222 224 225 231 234 235 237 243 249 253 253 253 253 253 254 258 262 267 272 277 281
350 204 201 294 201 147 182 253 248 250 222 240 236 235 234 229 227 227 226 229 229 230 228 224 222 222 223 226 228 227 228 232 232 235 239 244 250 255 258 260 259 254 254 257 260 264 271 276 281
191 191 208 229 248 209 191 252 255 308 234 254 252 232 233 235 230 230 230 232 233 233 232 230 230 229 226 228 232 236 236 237 238 237 241 247 254 258 265 271 272 262 261 264 267 270 272 277 284
150 185 185 219 328 225 252 256 265 257 259 269 255 245 237 239 241 238 234 233 236 235 235 231 229 227 227 227 229 232 237 237 239 241 244 250 258 263 265 272 279 276 273 276 276 277 277 279 284
153 184 222 282 75 173 283 263 262 241 242 244 246 249 250 250 246 241 240 237 235 235 236 235 231 231 229 231 233 236 240 245 247 249 251 253 258 264 268 270 275 276 276 269 276 281 280 276 277
195 177 175 203 324 163 322 275 249 256 249 250 247 248 253 253 250 242 241 242 238 236 236 236 236 236 234 234 235 234 238 241 247 253 258 259 259 263 269 270 271 271 269 265 266 269 270 285 280
219 179 169 195 43 238 27 281 291 308 291 264 254 245 244 247 249 250 245 241 237 236 237 237 238 239 239 237 238 238 238 240 240 246 248 258 261 260 266 266 266 268 266 260 260 261 264 266 270
217 158 186 192 187 19 235 316 269 345 298 258 264 269 269 264 262 255 253 249 243 240 238 239 238 238 238 240 240 240 241 244 243 244 249 255 260 267 272 267 267 267 262 261 263 262 262 266 269
141 95 60 62 114 256 205 174 263 214 241 321 0 327 320 292 298 244 261 249 239 238 236 234 234 234 233 237 239 242 244 246 246 244 249 257 264 269 268 263 265 267 262 258 259 261 262 264 266
172 143 47 20 343 231 215 167 246 287 300 287 320 354 16 37 139 254 249 223 217 224 225 222 221 225 229 232 235 235 237 240 241 244 249 254 260 261 259 262 265 265 265 261 259 259 260 262 267
183 180 164 183 195 196 181 226 237 322 42 54 63 62 78 85 88 95 103 118 139 156 174 192 200 202 206 214 220 223 226 230 235 240 246 250 252 253 256 261 265 265 263 262 261 262 263 266 268
184 215 167 109 60 78 207 286 343 14 31 31 46 61 68 83 89 94 101 108 115 120 126 137 153 160 165 176 187 198 206 214 222 229 235 241 246 250 254 260 261 260 261 262 261 261 262 263 267
170 159 190 45 151 229 261 275 199 64 30 17 43 55 69 81 92 97 99 102 106 111 115 121 126 132 134 141 148 158 168 180 193 208 220 236 244 246 248 252 255 259 262 266 270 274 271 265 262
183 184 189 128 159 170 150 247 227 131 71 94 66 73 81 89 93 95 98 101 104 109 113 114 118 121 126 130 135 146 158 173 190 207 219 229 240 248 252 256 259 261 267 271 268 272 272 270 269
206 206 205 200 215 233 139 243 82 108 114 120 101 100 103 103 102 101 102 104 106 105 108 109 109 114 114 118 126 137 144 154 171 189 210 231 253 265 272 275 276 275 272 269 264 262 265 268 271